Location: Esch
(46.2667°N, 7.8667°E)
Time: 20:14:47
(UTC+00:00)

Daily predictions for brighter satellites

Satellite Brightness Start Highest point End
(mag) Time Altitude Azimuth Time Altitude Azimuth Time Altitude Azimuth
SL-16 R/B 3.5 16:54:59 10° SE 16:58:47 19° E 17:02:37 10° ENE
AQUARIUS 4.2 16:55:43 10° SSE 17:00:12 89° WSW 17:04:44 10° NNW
Cosmos 1939 Rocket 3.1 16:56:50 10° S 17:00:44 76° WSW 17:04:45 10° NNW
OPS 6432 4.5 16:58:28 10° NNW 17:01:22 47° NE 17:04:44 10° SE
Cosmos 1727 Rocket 4.0 16:55:34 10° N 17:01:49 82° E 17:07:59 10° S
COSMO-SKYMED 1 3.4 16:58:20 10° NNE 17:02:12 31° E 17:06:03 10° SSE
Cosmos 2082 4.1 16:58:41 10° NNW 17:04:18 70° WSW 17:09:52 10° SSE
Radarsat Rocket 4.4 16:59:04 10° SSE 17:05:25 84° WSW 17:12:40 10° NNW
deb Chang Zheng 4 3.6 17:01:40 10° SSE 17:05:47 57° ENE 17:09:56 10° N
Cosmos 2366 rocket 4.5 17:00:25 10° SSW 17:06:33 67° W 17:12:48 10° N
ATLAS 5 CENTAUR R/B 1.4 17:04:15 10° SSW 17:08:00 61° SE 17:12:15 10° NE
Cosmos 1892 Rocket 3.7 17:06:25 10° N 17:10:49 55° ENE 17:15:10 10° SSE
Cosmos 1300 3.9 17:09:52 10° SE 17:12:46 21° E 17:15:41 10° NE
Cosmos 2322 Rocket 3.5 17:09:32 10° SE 17:13:13 18° E 17:16:56 10° ENE
Cosmos 2150 Rocket 4.5 17:08:26 10° SSW 17:13:50 69° WNW 17:19:13 10° NNE
Cosmos 1703 3.2 17:12:17 10° N 17:16:12 60° E 17:20:02 10° SSE
Cosmos 1174 4.4 17:16:55 10° SW 17:19:58 40° NW 17:22:50 10° NNE
Lacrosse 4 Rocket 2.9 17:16:54 10° N 17:20:10 21° NE 17:22:48 13° E
CZ-4C R/B 3.7 17:18:22 10° NE 17:21:23 29° E 17:24:18 10° SSE
Cosmos 2360 Rocket 3.7 17:22:35 10° SE 17:25:14 14° E 17:26:16 13° E
Cosmos 405 Rocket 2.7 17:25:51 10° N 17:29:49 73° ENE 17:33:50 10° SSE
Helios 1B 4.5 17:25:41 10° NNE 17:30:02 73° ESE 17:34:21 10° S
X-37B 0.7 17:28:26 10° W 17:31:37 72° S 17:33:45 19° E
Cosmos 489 Rocket 4.4 17:26:18 10° NNW 17:32:32 76° ENE 17:38:44 10° SSE
CZ-4B R/B 3.3 17:27:27 10° SSE 17:33:07 89° ENE 17:38:49 10° NNW
Cosmos 1000 Rocket 4.5 17:27:33 10° N 17:33:46 87° E 17:39:59 10° S
Iridium 4 Rocket 3.4 17:30:48 10° N 17:35:13 50° E 17:40:01 10° SSE
H-2A R/B 2.2 17:30:03 10° SSE 17:35:26 85° WSW 17:40:56 10° NNW
Cosmos 1626 Rocket 4.1 17:32:05 10° N 17:36:03 34° ENE 17:40:00 10° SE
MOS 1-B Rocket 4.1 17:32:36 10° NNE 17:39:17 61° E 17:45:05 10° S
ARGOS 3.1 17:37:40 10° SSE 17:43:01 71° ENE 17:48:26 10° N
Cosmos 389 Rocket 4.4 17:40:21 10° SW 17:43:24 31° WNW 17:46:31 10° N
Cosmos 2263 Rocket 2.3 17:40:51 10° NNW 17:46:25 80° WSW 17:51:58 10° SSE
Cosmos 1328 3.7 17:42:25 10° N 17:46:28 73° E 17:50:29 10° SSE
Cosmos 2227 4.2 17:41:19 10° NNW 17:47:08 84° ENE 17:52:53 10° SSE
Cosmos 724 4.4 17:42:21 10° NW 17:48:20 81° WSW 17:54:09 10° SSE
Cosmos 1980 Rocket 2.9 17:42:53 10° SW 17:48:27 56° WNW 17:54:04 10° NNE
Spot 2 4.0 17:44:29 10° SSE 17:48:32 60° ENE 17:52:48 10° N
SKYMED 2 3.6 17:46:01 10° NNE 17:50:23 85° WNW 17:54:44 10° SSW
Cosmos 371 Rocket 3.3 17:47:03 10° S 17:51:49 59° ESE 17:56:38 10° NNE
Cosmos 1953 3.3 17:47:54 10° SSW 17:51:51 50° WNW 17:55:49 10° N
NOSS 2-3 (E) 3.9 17:48:16 10° S 17:51:59 39° ESE 17:54:09 23° ENE
USA 215 4.0 17:47:12 10° NE 17:53:22 47° NNW 17:59:34 10° W
SJ-11-01 4.3 17:49:41 10° SSE 17:54:23 87° WSW 17:59:07 10° NNW
USA 229 DEB 4.2 17:50:55 10° S 17:56:24 32° ESE 17:59:48 20° ENE
USA 229 4.2 17:51:02 10° S 17:56:31 32° ESE 17:59:48 21° ENE
YAOGAN 1 2.6 17:53:37 10° SSE 17:57:52 58° ENE 18:02:07 10° N
Cosmos 1455 Rocket 3.6 17:55:09 10° SSW 17:59:32 63° W 18:03:58 10° N
NOSS 8 (E) 4.2 17:56:26 10° SSW 17:59:54 62° SE 18:00:47 40° ENE
Cosmos 1269 Rocket 4.4 17:55:25 10° NNW 18:00:41 69° WSW 18:05:56 10° S
H-2A R/B 2.4 17:56:26 10° SSE 18:00:46 77° ENE 18:04:57 10° N
CZ-2C R/B 2.8 17:57:18 10° NNE 18:02:57 86° WNW 18:08:29 10° SSW
H-2A R/B 2.4 17:59:21 10° NNE 18:03:12 37° E 18:07:05 10° SSE
SL-8 R/B 3.6 17:58:35 10° WSW 18:03:23 87° SSE 18:05:47 30° ENE
Cosmos 1892 3.7 18:00:51 10° N 18:03:25 27° NE 18:03:25 27° NE
CZ-4 R/B 1.2 18:02:57 10° SSE 18:06:56 71° ENE 18:11:01 10° N
CSL-04 Rocket 4.2 18:05:17 24° ESE 18:08:03 39° ENE 18:13:11 10° N
Cosmos 1934 Rocket 3.9 18:02:57 10° S 18:09:04 86° W 18:15:10 10° N
Tiangong 2.2 18:06:50 10° WSW 18:09:44 31° S 18:09:58 31° SSE
Okean O Rocket 2.8 18:08:31 10° S 18:12:40 44° W 18:16:51 10° NNW
Cosmos 1544 Rocket 3.7 18:09:01 10° SSW 18:13:29 78° W 18:17:58 10° N
Cosmos 2251 Rocket 3.6 18:13:10 10° NNW 18:18:18 51° ENE 18:20:00 36° ESE
NOSS 3-1 (A) 3.5 18:13:46 10° S 18:18:40 42° ESE 18:20:10 35° E
Cosmos 1844 Rocket 3.0 18:14:52 10° NNW 18:20:14 45° ENE 18:21:39 38° E
ATLAS 3B R/B 4.2 18:15:14 10° W 18:20:57 29° NNW 18:26:57 10° NNE
SL-08 RB Rocket 3.9 18:17:17 10° S 18:21:49 71° WSW 18:26:25 10° NNW
NOSS 8 (F) 4.5 18:21:03 10° SW 18:24:25 64° NW 18:24:43 59° NNW
Meteor 1-4 Rocket 2.6 18:22:37 10° S 18:25:30 58° S 18:25:30 58° S
IRS-1C Rocket 4.0 18:22:02 10° SSE 18:27:17 80° ENE 18:32:35 10° NNW
Cosmos 44 3.9 18:24:56 10° S 18:29:37 41° SE 18:29:37 41° SE
Okean-O 2.5 18:29:03 43° SE 18:30:23 71° ENE 18:34:49 10° N
Cosmos 407 Rocket 4.3 18:26:03 10° N 18:30:24 33° NE 18:30:24 33° NE
HJ-1C 3.6 18:31:16 57° SW 18:31:40 65° W 18:34:55 10° NNW
DMSP B5D1-3 4.4 18:28:50 10° NNE 18:34:01 85° ESE 18:39:10 10° SSW
CZ-2C R/B 3.5 18:33:12 10° SSW 18:34:01 11° SSW 18:34:01 11° SSW
IRAS Rocket 4.4 18:30:16 10° NNE 18:35:49 72° WNW 18:41:18 10° SSW
Cosmos 2278 Rocket 4.1 18:32:40 10° N 18:35:14 15° NNE 18:35:14 15° NNE
Cosmos 1602 Rocket 3.6 18:33:29 10° NNW 18:37:51 77° W 18:40:28 23° S
NOSS 2-3 (D) 3.4 18:35:12 10° SW 18:39:15 86° NW 18:40:04 59° NNE
Cosmos 1140 Rocket 4.3 18:35:24 10° N 18:39:15 33° NE 18:39:15 33° NE
SL-16 R/B 2.4 18:36:36 10° SSW 18:42:15 72° WNW 18:47:57 10° NNE
CENTAUR R/B 4.4 18:36:55 10° NW 18:42:43 23° NNE 18:45:53 19° NE
NOSS 3-1 (C) 3.3 18:39:23 10° SW 18:44:40 77° NW 18:48:20 25° NE
Meteor 2-10 Rocket 3.7 18:42:49 10° SSW 18:48:26 78° W 18:53:52 10° N
Cosmos 304 Rocket 4.0 18:47:03 10° SSW 18:51:49 69° WNW 18:54:51 22° NNE
NOSS 2-3 (C) 3.8 18:47:54 10° SW 18:51:57 65° NW 18:52:35 57° N
Meteor 2-11 Rocket 4.3 18:46:13 10° S 18:52:17 65° E 18:58:23 10° NNE
ATLAS 5 CENTAUR R/B 3.6 18:49:49 10° W 18:53:02 22° NNW 18:55:23 15° N
Cosmos 2100 Rocket 4.3 18:54:33 47° NE 18:54:33 47° NE 18:59:31 10° NNE
Cosmos 1408 4.4 18:50:30 10° NNW 18:52:03 24° NNW 18:52:03 24° NNW
Cosmos 2322 Rocket 2.3 18:51:01 10° SSW 18:56:37 73° WNW 19:00:50 18° NNE
Lacrosse 4 Rocket 1.9 18:54:55 10° NW 18:59:08 59° WSW 18:59:08 59° WSW
Cosmos 1844 3.6 18:57:03 10° NNW 19:02:53 79° ENE 19:03:00 78° E
Cosmos 332 Rocket 4.5 18:59:45 10° SW 19:04:32 53° WNW 19:07:46 20° N
Cosmos 1758 Rocket 4.1 19:02:34 10° NNW 19:06:22 54° WNW 19:06:22 54° WNW
X-37B 3.5 19:05:05 10° W 19:06:02 17° W 19:06:02 17° W
Cosmos 2360 Rocket 2.1 19:02:41 10° SSW 19:08:09 84° S 19:08:09 84° S
Cosmos 2344 4.4 19:12:57 10° NW 19:22:14 75° SW 19:29:04 32° SSE
USA 215 4.3 19:34:27 33° NNE 19:35:32 35° N 19:41:18 10° WNW
H-2A R/B 4.3 19:35:47 10° NNW 19:38:58 22° WNW 19:42:10 10° WSW
USA 229 DEB 4.0 19:40:35 10° SW 19:46:55 60° NW 19:47:18 59° NNW
USA 229 3.9 19:40:41 10° SW 19:47:01 61° NW 19:47:20 60° NNW
Cosmos 1844 Rocket 4.3 19:59:07 10° NW 20:03:21 29° W 20:03:21 29° W
Cosmos 2278 Rocket 4.3 20:15:26 10° NNW 20:17:04 20° NNW 20:17:04 20° NNW
CENTAUR R/B 4.1 20:27:56 10° NW 20:33:03 37° N 20:33:03 37° N
